Home > Weather > Newport > Past weeks

Flag for United Kingdom Past Weather in Newport, Wales, United Kingdom — Yesterday and Last 2 Weeks

Now
54 °F

Cool.


Feels Like: 50 °F
Forecast: 49 / 72 °F
Wind: 12 mph from West

Location: Bristol / Lulsgate

Current Time: Aug 26, 2016 at 6:19:38 AM

Latest Report: Aug 26, 2016 at 5:50 AM


Visibility: N/A

Pressure: 30.04 "Hg

Humidity: 88%

Dew Point: 50 °F

Location of NewportLocation

Past Weather in Newport — Graph

°F

Newport Temperature Yesterday

Maximum temperature yesterday: 66 °F (at 5:20 PM)
Minimum temperature yesterday: 57 °F (at 6:20 AM)
Average temperature yesterday: 62 °F

High & Low Weather Summary for the Past Weeks

 TemperatureHumidityPressure
High79 °F (Aug 23, 1:50 PM)100% (Aug 13, 10:20 AM)30.30 "Hg (Aug 13, 10:20 AM)
Low48 °F (Aug 16, 5:50 AM)47% (Aug 16, 4:20 PM)29.59 "Hg (Aug 19, 3:20 PM)
Average62 °F83%30.06 "Hg
* Reported Aug 11 5:20 AM — Aug 26 5:20 AM, Newport, Weather by CustomWeather, © 2016

Note: Actual official high and low records may vary slightly from our data, if they occured in-between our weather recording intervals... More about our weather records

Advertising

Newport Weather History for the Previous 24 Hours

Scroll right to see more
 ConditionsComfort  
Time TempWeatherWind HumidityBarometerVisibility
5:20 AM
Fri, Aug 26
54 °FCool.9 mph88%30.04 "HgN/A
4:50 AM54 °FPassing clouds.7 mph94%30.01 "HgN/A
4:20 AM55 °FPassing clouds.9 mph88%30.01 "HgN/A
3:50 AM57 °FCool.9 mph94%30.01 "HgN/A
3:20 AM57 °FCool.8 mph94%30.01 "HgN/A
2:50 AM57 °FPassing clouds.8 mph94%30.01 "HgN/A
2:20 AM57 °FPassing clouds.7 mph100%30.01 "HgN/A
1:50 AM59 °FOvercast.10 mph100%30.01 "Hg5 mi
1:20 AM61 °FHeavy rain. Passing clouds.7 mph100%29.98 "Hg2 mi
12:50 AM61 °FRain. Passing clouds.8 mph100%29.98 "Hg2 mi
12:20 AM61 °FRain. Low clouds.9 mph100%30.01 "Hg2 mi
11:50 PM
Thu, Aug 25
63 °FFog.10 mph94%30.01 "Hg0 mi
11:20 PM63 °FFog.8 mph100%30.01 "Hg0 mi
10:50 PM63 °FFog.6 mph100%30.01 "Hg0 mi
10:20 PM63 °FFog.6 mph100%29.98 "Hg0 mi
9:50 PM63 °FHeavy rain. Passing clouds.8 mph100%29.98 "Hg0 mi
9:20 PM63 °FFog.10 mph100%30.01 "Hg0 mi
8:50 PM63 °FFog.7 mph100%29.98 "Hg1 mi
8:20 PM63 °FFog.2 mph100%29.98 "Hg2 mi
7:50 PM64 °FFog.5 mph94%29.98 "Hg2 mi
7:20 PM64 °FFog.5 mph94%29.98 "Hg1 mi
6:50 PM64 °FFog.5 mph94%29.98 "Hg1 mi
6:20 PM64 °FFog.6 mph94%29.98 "Hg1 mi
5:50 PM64 °FPartly sunny.3 mph94%29.98 "Hg2 mi
5:20 PM66 °FPartly sunny.2 mph88%29.98 "Hg3 mi
4:50 PM64 °FFog.3 mph94%29.98 "Hg3 mi
4:20 PM64 °FFog.5 mph94%29.98 "Hg2 mi
3:50 PM64 °FFog.5 mph94%29.98 "Hg2 mi
3:20 PM64 °FBroken clouds.2 mph94%30.01 "Hg2 mi
2:50 PM64 °FBroken clouds.2 mph94%29.98 "Hg2 mi
2:20 PM64 °FLight rain. Low clouds.5 mph94%29.98 "Hg2 mi
1:50 PM63 °FDrizzle. Fog.6 mph100%30.01 "Hg1 mi
1:20 PM63 °FFog.5 mph100%30.01 "Hg2 mi
12:50 PM63 °FDrizzle. Fog.6 mph100%30.01 "Hg1 mi
12:20 PM63 °FLight rain. Low clouds.5 mph100%30.01 "Hg1 mi
11:50 AM63 °FRain. Low clouds.5 mph100%30.01 "Hg1 mi
11:20 AM63 °FFog.2 mph94%30.04 "Hg1 mi
10:50 AM63 °FFog.2 mph94%30.04 "Hg1 mi
10:20 AM63 °FFog.5 mph94%30.04 "Hg1 mi
9:50 AM61 °FFog.3 mph100%30.04 "Hg0 mi
9:20 AM61 °FFog.5 mph100%30.01 "Hg1 mi
8:50 AM61 °FFog.8 mph100%30.01 "Hg0 mi
8:20 AM61 °FFog.6 mph94%30.01 "Hg0 mi
7:50 AM61 °FFog.7 mph94%30.01 "Hg0 mi
7:20 AM59 °FFog.6 mph100%30.01 "Hg1 mi
6:50 AM59 °FFog.6 mph100%30.01 "Hg1 mi
6:20 AM57 °FFog.5 mph100%30.01 "Hg1 mi
Weather by CustomWeather, © 2016

See weather overviewHow to use our weather pages